• In Czech Republic
  • List of Countries
  • For 7 days
  • Water Temperature
  • Satellite Maps
  • Weather Map
  • Weather Widgets
  • user-avatar
    Login

    Hourly Weather Sana

    Today, 21 September, Friday

    Time Temperature Precipitation Wind Pressure Humidity
    00:00 +20°C° 0 mm 2 mps 580 mmHg 23%
    01:00 +19°C° 0 mm 2 mps 580 mmHg 24%
    02:00 +19°C° 0 mm 2 mps 579 mmHg 25%
    03:00 +18°C° 0 mm 2 mps 579 mmHg 26%
    04:00 +18°C° 0 mm 2 mps 579 mmHg 27%
    05:00 +18°C° 0 mm 2 mps 579 mmHg 28%
    06:00 +18°C° 0 mm 1 mps 579 mmHg 29%
    07:00 +19°C° 0 mm 3 mps 580 mmHg 26%
    08:00 +21°C° 0 mm 5 mps 581 mmHg 22%
    09:00 +23°C° 0 mm 6 mps 583 mmHg 19%
    10:00 +24°C° 0 mm 6 mps 583 mmHg 17%
    11:00 +26°C° 0 mm 7 mps 583 mmHg 15%
    12:00 +27°C° 0 mm 7 mps 583 mmHg 13%
    13:00 +27°C° 0 mm 7 mps 583 mmHg 13%
    14:00 +28°C° 0 mm 7 mps 582 mmHg 13%
    15:00 +28°C° 0 mm 7 mps 582 mmHg 13%
    16:00 +27°C° 0.1 mm 6 mps 582 mmHg 15%
    17:00 +26°C° 0.1 mm 6 mps 581 mmHg 17%
    18:00 +25°C° 0.1 mm 5 mps 581 mmHg 19%
    19:00 +23°C° 0.1 mm 4 mps 581 mmHg 22%
    20:00 +24°C° 0.1 mm 3 mps 581 mmHg 25%
    21:00 +23°C° 0.1 mm 2 mps 581 mmHg 27%
    22:00 +21°C° 0 mm 2 mps 581 mmHg 29%
    23:00 +21°C° 0 mm 2 mps 581 mmHg 30%

    Tomorrow, 22 September, Saturday

    Time Temperature Precipitation Wind Pressure Humidity
    00:00 +20°C° 0 mm 2 mps 580 mmHg 32%
    01:00 +20°C° 0 mm 2 mps 580 mmHg 32%
    02:00 +20°C° 0 mm 1 mps 580 mmHg 33%
    03:00 +20°C° 0 mm 1 mps 579 mmHg 34%
    04:00 +19°C° 0 mm 1 mps 579 mmHg 35%
    05:00 +19°C° 0 mm 1 mps 579 mmHg 35%
    06:00 +18°C° 0 mm 1 mps 579 mmHg 36%
    07:00 +20°C° 0 mm 2 mps 580 mmHg 30%
    08:00 +22°C° 0 mm 4 mps 582 mmHg 25%
    09:00 +25°C° 0 mm 5 mps 583 mmHg 20%
    10:00 +26°C° 0 mm 6 mps 583 mmHg 18%
    11:00 +27°C° 0 mm 7 mps 584 mmHg 16%
    12:00 +28°C° 0 mm 8 mps 584 mmHg 15%
    13:00 +28°C° 0 mm 8 mps 583 mmHg 15%
    14:00 +28°C° 0 mm 8 mps 583 mmHg 15%
    15:00 +28°C° 0 mm 8 mps 582 mmHg 16%
    16:00 +27°C° 0 mm 8 mps 582 mmHg 17%
    17:00 +26°C° 0 mm 7 mps 582 mmHg 19%
    18:00 +24°C° 0 mm 7 mps 581 mmHg 21%
    19:00 +23°C° 0 mm 6 mps 581 mmHg 22%
    20:00 +23°C° 0 mm 5 mps 582 mmHg 23%
    21:00 +22°C° 0 mm 4 mps 582 mmHg 24%
    22:00 +21°C° 0 mm 3 mps 582 mmHg 24%
    23:00 +20°C° 0 mm 3 mps 581 mmHg 25%

    Day after tomorrow, 23 September, Sunday

    Time Temperature Precipitation Wind Pressure Humidity
    00:00 +20°C° 0 mm 2 mps 581 mmHg 25%
    01:00 +19°C° 0 mm 2 mps 581 mmHg 26%
    02:00 +19°C° 0 mm 1 mps 580 mmHg 26%
    03:00 +19°C° 0 mm 1 mps 580 mmHg 27%
    04:00 +18°C° 0 mm 1 mps 580 mmHg 27%
    05:00 +18°C° 0 mm 1 mps 580 mmHg 26%
    06:00 +18°C° 0 mm 1 mps 580 mmHg 26%
    07:00 +19°C° 0 mm 3 mps 581 mmHg 24%
    08:00 +21°C° 0 mm 5 mps 583 mmHg 21%
    09:00 +24°C° 0 mm 7 mps 584 mmHg 19%
    10:00 +26°C° 0 mm 8 mps 584 mmHg 17%
    11:00 +27°C° 0 mm 8 mps 584 mmHg 15%
    12:00 +28°C° 0 mm 9 mps 584 mmHg 13%
    13:00 +28°C° 0 mm 8 mps 584 mmHg 13%
    14:00 +28°C° 0 mm 8 mps 583 mmHg 13%
    15:00 +28°C° 0 mm 8 mps 583 mmHg 13%
    16:00 +27°C° 0 mm 7 mps 582 mmHg 15%
    17:00 +26°C° 0 mm 6 mps 582 mmHg 17%
    18:00 +25°C° 0 mm 5 mps 582 mmHg 19%
    19:00 +23°C° 0 mm 4 mps 582 mmHg 22%
    20:00 +24°C° 0 mm 3 mps 582 mmHg 25%
    21:00 +23°C° 0 mm 2 mps 582 mmHg 27%
    22:00 +21°C° 0 mm 2 mps 582 mmHg 29%
    23:00 +21°C° 0 mm 2 mps 581 mmHg 31%

    24 September, Monday

    Time Temperature Precipitation Wind Pressure Humidity
    00:00 +21°C° 0 mm 1 mps 581 mmHg 33%
    01:00 +21°C° 0 mm 1 mps 580 mmHg 34%
    02:00 +20°C° 0 mm 1 mps 580 mmHg 35%
    03:00 +20°C° 0 mm 1 mps 579 mmHg 37%
    04:00 +19°C° 0 mm 1 mps 579 mmHg 37%
    05:00 +19°C° 0 mm 1 mps 579 mmHg 38%
    06:00 +18°C° 0 mm 1 mps 579 mmHg 38%
    07:00 +19°C° 0 mm 2 mps 581 mmHg 33%
    08:00 +22°C° 0 mm 3 mps 582 mmHg 27%
    09:00 +25°C° 0 mm 4 mps 583 mmHg 22%
    10:00 +26°C° 0 mm 5 mps 583 mmHg 20%
    11:00 +27°C° 0 mm 6 mps 583 mmHg 18%
    12:00 +28°C° 0 mm 7 mps 583 mmHg 16%
    13:00 +28°C° 0 mm 7 mps 582 mmHg 16%
    14:00 +28°C° 0 mm 7 mps 582 mmHg 16%
    15:00 +28°C° 0 mm 7 mps 581 mmHg 16%
    16:00 +27°C° 0.1 mm 6 mps 581 mmHg 18%
    17:00 +26°C° 0.1 mm 6 mps 581 mmHg 20%
    18:00 +24°C° 0.1 mm 6 mps 581 mmHg 23%
    19:00 +25°C° 0 mm 5 mps 581 mmHg 25%
    20:00 +23°C° 0 mm 4 mps 581 mmHg 28%
    21:00 +22°C° 0 mm 3 mps 581 mmHg 31%
    22:00 +22°C° 0 mm 3 mps 581 mmHg 33%
    23:00 +21°C° 0 mm 2 mps 580 mmHg 35%

    25 September, Tuesday

    Time Temperature Precipitation Wind Pressure Humidity
    00:00 +20°C° 0 mm 2 mps 580 mmHg 36%
    01:00 +21°C° 0 mm 1 mps 580 mmHg 38%
    02:00 +20°C° 0 mm 1 mps 579 mmHg 39%
    03:00 +19°C° 0 mm 1 mps 579 mmHg 40%
    04:00 +19°C° 0 mm 1 mps 579 mmHg 40%
    05:00 +19°C° 0 mm 1 mps 579 mmHg 40%
    06:00 +18°C° 0 mm 1 mps 579 mmHg 40%
    07:00 +19°C° 0 mm 2 mps 580 mmHg 35%
    08:00 +21°C° 0 mm 3 mps 581 mmHg 30%
    09:00 +23°C° 0 mm 4 mps 583 mmHg 24%
    10:00 +25°C° 0 mm 5 mps 583 mmHg 22%
    11:00 +26°C° 0 mm 5 mps 583 mmHg 20%
    12:00 +27°C° 0 mm 6 mps 582 mmHg 18%
    13:00 +27°C° 0 mm 6 mps 582 mmHg 18%
    14:00 +27°C° 0 mm 6 mps 582 mmHg 18%
    15:00 +27°C° 0 mm 6 mps 581 mmHg 19%
    16:00 +26°C° 0.1 mm 6 mps 581 mmHg 21%
    17:00 +26°C° 0.1 mm 6 mps 581 mmHg 23%
    18:00 +24°C° 0.1 mm 6 mps 581 mmHg 26%
    19:00 +23°C° 0 mm 5 mps 581 mmHg 28%
    20:00 +23°C° 0 mm 5 mps 581 mmHg 29%
    21:00 +22°C° 0 mm 4 mps 581 mmHg 31%
    22:00 +21°C° 0 mm 4 mps 581 mmHg 32%
    23:00 +21°C° 0 mm 3 mps 581 mmHg 32%

    26 September, Wednesday

    Time Temperature Precipitation Wind Pressure Humidity
    00:00 +20°C° 0 mm 3 mps 580 mmHg 32%
    01:00 +20°C° 0 mm 2 mps 580 mmHg 32%
    02:00 +19°C° 0 mm 2 mps 579 mmHg 31%
    03:00 +18°C° 0 mm 2 mps 579 mmHg 30%
    04:00 +19°C° 0 mm 1 mps 579 mmHg 31%
    05:00 +18°C° 0 mm 1 mps 579 mmHg 31%
    06:00 +18°C° 0 mm 1 mps 579 mmHg 31%
    07:00 +19°C° 0 mm 2 mps 580 mmHg 28%
    08:00 +21°C° 0 mm 4 mps 581 mmHg 24%
    09:00 +22°C° 0 mm 5 mps 583 mmHg 21%
    10:00 +23°C° 0 mm 5 mps 583 mmHg 19%
    11:00 +24°C° 0 mm 6 mps 583 mmHg 17%
    12:00 +26°C° 0 mm 6 mps 582 mmHg 15%
    13:00 +27°C° 0 mm 6 mps 582 mmHg 15%
    14:00 +27°C° 0 mm 7 mps 582 mmHg 15%
    15:00 +27°C° 0 mm 7 mps 581 mmHg 15%
    16:00 +26°C° 0 mm 7 mps 581 mmHg 16%
    17:00 +26°C° 0 mm 7 mps 581 mmHg 17%
    18:00 +24°C° 0 mm 6 mps 581 mmHg 19%
    19:00 +23°C° 0.1 mm 6 mps 581 mmHg 21%
    20:00 +22°C° 0.1 mm 5 mps 581 mmHg 22%
    21:00 +22°C° 0.1 mm 5 mps 581 mmHg 24%
    22:00 +21°C° 0 mm 4 mps 581 mmHg 25%
    23:00 +20°C° 0 mm 3 mps 580 mmHg 27%
    Show more